Content
SEND FEEDBACK

Daily
Averages
Monthly
Summary
United States of America

ST. PAUL, MINNESOTA


Home > North America > United States > Minnesota
Elevation: 809 feet     Latitude: 44 58N     Longitude: 093 04W

WEATHER
 
SELECT A DAY
Number of Records: 153,813;   Date Range: 1/1/95 - 12/23/14
 
SHARE

PRINT THIS DATA

[ ← Previous Day ]
WEATHER ALMANAC - JANUARY 31, 2013
[ Next Day → ]
[ °C ]   °F
Weather ElementAverageHighLow
Temperature2.7 °F8.6 °F (1:01 am)-6 °F (11:53 pm)
Dewpoint-6.3 °F1 °F (2:53 am)-16.1 °F (11:53 pm)
Humidity66.4 %77 % (2:53 am)58 % (5:53 pm)
Barometer30.04 in30.34 in (11:53 pm)29.78 in (1:01 am)
Wind Speed18.7 mph21.9 mph (9:04 am)
Wind Gust31.1 mph (2:53 pm)
Weather ElementAverage
Visibility6.5 mi
Wind DirectionWNW (298.5 °)

Weather ElementTotal
Precipitation---
Heating Degree Days63.7 (Base 65)
Averaged from 39 records on January 31, 2013
WEATHER CONDITIONS BREAKOUT
WIND DIRECTION BREAKOUT
WEATHER BY HOUR - JANUARY 31, 2013
[ °C ]   °F
Local TimeTemperatureDewpointHumidityBarometerVisibilityWind DirectionWind SpeedGust SpeedPrecipitationEventsConditions
1:01 AM8.6 °F-0.4 °F67 %29.78 in10.0 miWNW (290°)17.3 mph24.2 mphMostly Cloudy
1:25 AM8.6 °F-0.4 °F67 %29.78 in10.0 miWNW (300°)16.1 mph24.2 mphMostly Cloudy
1:53 AM7.0 °F-0.9 °F70 %29.83 in10.0 miWNW (300°)18.4 mph25.3 mphOvercast
2:53 AM7.0 °F1.0 °F77 %29.84 in3.0 miWNW (300°)13.8 mph0.00 inSnowLight Snow
3:53 AM6.1 °F-2.0 °F69 %29.85 in10.0 miWNW (300°)20.7 mph25.3 mph0.00 inOvercast
4:53 AM5.0 °F-2.2 °F72 %29.83 in10.0 miWNW (300°)18.4 mph25.3 mphOvercast
5:53 AM5.0 °F-2.9 °F70 %29.89 in7.0 miNW (310°)20.7 mph0.00 inOvercast
6:53 AM5.0 °F-2.0 °F73 %29.93 in4.0 miWNW (290°)13.8 mph0.00 inSnowLight Snow
7:53 AM3.0 °F-5.1 °F69 %29.96 in5.0 miWNW (300°)20.7 mph26.5 mph0.00 inOvercast
8:35 AM3.2 °F-5.8 °F66 %29.94 in5.0 miWNW (300°)18.4 mph23.0 mph0.00 inHaze
8:53 AM1.9 °F-6.0 °F69 %29.99 in10.0 miWNW (300°)20.7 mph27.6 mph0.00 inMostly Cloudy
9:04 AM1.4 °F-7.6 °F66 %29.95 in10.0 miWNW (290°)21.9 mph27.6 mphMostly Cloudy
9:40 AM1.4 °F-5.8 °F72 %29.97 in7.0 miWNW (300°)16.1 mph0.00 inOvercast
9:51 AM1.4 °F-5.8 °F72 %29.98 in6.0 miWNW (300°)18.4 mph0.00 inSnowBlowing Snow
9:53 AM1.9 °F-6.0 °F69 %30.02 in7.0 miNW (310°)21.9 mph0.00 inOvercast
10:14 AM3.2 °F-5.8 °F66 %29.99 in2.0 miWNW (300°)19.6 mph24.2 mph0.00 inSnowLight Snow
10:43 AM3.2 °F-5.8 °F66 %30.00 in3.0 miNW (310°)17.3 mph27.6 mph0.00 inOvercast
10:53 AM3.0 °F-6.0 °F66 %30.06 in5.0 miNW (310°)20.7 mph26.5 mph0.00 inOvercast
11:31 AM3.2 °F-5.8 °F66 %30.02 in2.0 miWNW (290°)20.7 mph0.00 inSnowLight Snow
11:39 AM3.2 °F-5.8 °F66 %30.02 in1.8 miWNW (300°)18.4 mph0.00 inSnowLight Snow
11:53 AM3.0 °F-6.0 °F66 %30.07 in2.5 miWNW (300°)18.4 mph25.3 mph0.00 inSnowLight Snow
12:09 PM3.2 °F-5.8 °F66 %30.03 in4.0 miWNW (300°)20.7 mph29.9 mph0.00 inOvercast
12:25 PM3.2 °F-5.8 °F66 %30.03 in2.5 miWNW (300°)21.9 mph0.00 inOvercast
12:34 PM3.2 °F-5.8 °F66 %30.04 in3.0 miWNW (300°)21.9 mph26.5 mph0.00 inOvercast
12:42 PM3.2 °F-5.8 °F66 %30.04 in2.0 miWNW (300°)17.3 mph25.3 mph0.00 inOvercast
12:53 PM3.0 °F-6.0 °F66 %30.09 in2.5 miWNW (290°)18.4 mph0.00 inOvercast
1:14 PM3.2 °F-7.6 °F61 %30.04 in4.0 miNW (310°)21.9 mph0.00 inOvercast
1:53 PM3.0 °F-6.0 °F66 %30.11 in4.0 miWNW (300°)18.4 mph27.6 mph0.00 inOvercast
2:53 PM3.9 °F-6.0 °F64 %30.13 in6.0 miWNW (300°)17.3 mph31.1 mph0.00 inSnowBlowing Snow
3:53 PM3.0 °F-7.1 °F63 %30.15 in7.0 miWNW (290°)21.9 mph28.8 mph0.00 inOvercast
4:28 PM3.2 °F-7.6 °F61 %30.13 in10.0 miNW (310°)19.6 mph29.9 mphScattered Clouds
4:53 PM1.9 °F-8.0 °F63 %30.19 in10.0 miWNW (300°)19.6 mph28.8 mphClear
5:53 PM1.9 °F-9.9 °F58 %30.21 in10.0 miNW (310°)18.4 mph26.5 mphClear
6:53 PM1.0 °F-9.9 °F60 %30.24 in10.0 miWNW (290°)16.1 mph25.3 mphClear
7:53 PM-0.9 °F-11.0 °F62 %30.27 in10.0 miWNW (290°)16.1 mph21.9 mphClear
8:53 PM-2.2 °F-11.2 °F66 %30.24 in10.0 miWest (280°)17.3 mphClear
9:53 PM-4.0 °F-13.0 °F65 %30.30 in10.0 miWest (280°)13.8 mph24.2 mphClear
10:53 PM-5.1 °F-14.1 °F65 %30.32 in10.0 miWNW (290°)18.4 mphClear
11:53 PM-6.0 °F-16.1 °F62 %30.34 in10.0 miWNW (300°)18.4 mphClear
Hourly data recorded from KSTP, located miles away from St. Paul, Minnesota







STORIES FROM OUR PARTNERS